When you browse on this site, cookies collect data to enhance your experience and personalize the content and advertising you see.
Visit our Privacy Policy to learn more. By continuing to use the site, you agree to this use of cookies and data.
  • In France
  • List of Countries
  • For 7 days
  • Water Temperature
  • Weather Map
  • Weather Widgets
  • user-avatar
    Login

    Hourly Weather San Luis

    Today, 24 February, Monday

    Time Temperature Precipitation Wind Pressure Humidity
    00:00 +20°C° 0 mm 7 mps 694 mmHg 51%
    01:00 +20°C° 0 mm 6 mps 694 mmHg 52%
    02:00 +19°C° 0 mm 6 mps 693 mmHg 53%
    03:00 +19°C° 0 mm 5 mps 693 mmHg 55%
    04:00 +17°C° 0 mm 5 mps 693 mmHg 56%
    05:00 +18°C° 0 mm 4 mps 692 mmHg 58%
    06:00 +19°C° 0 mm 4 mps 693 mmHg 53%
    07:00 +21°C° 0 mm 5 mps 693 mmHg 48%
    08:00 +23°C° 0 mm 5 mps 694 mmHg 43%
    09:00 +26°C° 0 mm 5 mps 694 mmHg 39%
    10:00 +28°C° 0 mm 5 mps 695 mmHg 35%
    11:00 +30°C° 0 mm 6 mps 695 mmHg 31%
    12:00 +32°C° 0 mm 5 mps 694 mmHg 29%
    13:00 +33°C° 0 mm 5 mps 694 mmHg 26%
    14:00 +34°C° 0 mm 4 mps 694 mmHg 24%
    15:00 +34°C° 0 mm 5 mps 693 mmHg 25%
    16:00 +33°C° 0 mm 5 mps 693 mmHg 26%
    17:00 +33°C° 0 mm 5 mps 692 mmHg 27%
    18:00 +30°C° 0 mm 6 mps 693 mmHg 30%
    19:00 +27°C° 0 mm 7 mps 693 mmHg 33%
    20:00 +24°C° 0 mm 8 mps 693 mmHg 36%
    21:00 +22°C° 0.2 mm 7 mps 694 mmHg 37%
    22:00 +21°C° 0.2 mm 6 mps 695 mmHg 39%
    23:00 +19°C° 0.2 mm 6 mps 696 mmHg 40%

    Tomorrow, 25 February, Tuesday

    Time Temperature Precipitation Wind Pressure Humidity
    00:00 +17°C° 0.3 mm 6 mps 697 mmHg 48%
    01:00 +16°C° 0.3 mm 6 mps 697 mmHg 57%
    02:00 +15°C° 0.3 mm 6 mps 697 mmHg 65%
    03:00 +14°C° 0.5 mm 6 mps 697 mmHg 67%
    04:00 +14°C° 0.5 mm 6 mps 697 mmHg 69%
    05:00 +14°C° 0.5 mm 5 mps 697 mmHg 71%
    06:00 +15°C° 0 mm 4 mps 697 mmHg 66%
    07:00 +18°C° 0 mm 3 mps 698 mmHg 60%
    08:00 +20°C° 0 mm 2 mps 699 mmHg 55%
    09:00 +22°C° 0 mm 3 mps 699 mmHg 44%
    10:00 +25°C° 0 mm 3 mps 699 mmHg 34%
    11:00 +27°C° 0 mm 4 mps 700 mmHg 23%
    12:00 +28°C° 0 mm 4 mps 699 mmHg 21%
    13:00 +29°C° 0 mm 4 mps 699 mmHg 20%
    14:00 +29°C° 0 mm 4 mps 699 mmHg 18%
    15:00 +29°C° 0 mm 4 mps 698 mmHg 18%
    16:00 +29°C° 0 mm 4 mps 698 mmHg 17%
    17:00 +29°C° 0 mm 4 mps 698 mmHg 17%
    18:00 +27°C° 0 mm 4 mps 698 mmHg 20%
    19:00 +23°C° 0 mm 4 mps 698 mmHg 23%
    20:00 +21°C° 0 mm 3 mps 698 mmHg 26%
    21:00 +20°C° 0 mm 3 mps 698 mmHg 26%
    22:00 +20°C° 0 mm 4 mps 699 mmHg 26%
    23:00 +19°C° 0 mm 4 mps 700 mmHg 27%

    Day after tomorrow, 26 February, Wednesday

    Time Temperature Precipitation Wind Pressure Humidity
    00:00 +19°C° 0 mm 4 mps 700 mmHg 27%
    01:00 +19°C° 0 mm 4 mps 699 mmHg 28%
    02:00 +18°C° 0 mm 4 mps 699 mmHg 28%
    03:00 +18°C° 0 mm 4 mps 700 mmHg 29%
    04:00 +17°C° 0 mm 5 mps 700 mmHg 30%
    05:00 +16°C° 0 mm 5 mps 700 mmHg 31%
    06:00 +17°C° 0 mm 5 mps 700 mmHg 30%
    07:00 +20°C° 0 mm 5 mps 701 mmHg 30%
    08:00 +21°C° 0 mm 4 mps 701 mmHg 30%
    09:00 +23°C° 0 mm 4 mps 701 mmHg 26%
    10:00 +26°C° 0 mm 4 mps 702 mmHg 23%
    11:00 +29°C° 0 mm 4 mps 702 mmHg 20%
    12:00 +29°C° 0 mm 3 mps 701 mmHg 19%
    13:00 +30°C° 0 mm 3 mps 701 mmHg 19%
    14:00 +31°C° 0 mm 2 mps 700 mmHg 18%
    15:00 +31°C° 0 mm 3 mps 699 mmHg 19%
    16:00 +31°C° 0 mm 3 mps 699 mmHg 19%
    17:00 +31°C° 0 mm 3 mps 698 mmHg 19%
    18:00 +29°C° 0 mm 5 mps 698 mmHg 22%
    19:00 +26°C° 0 mm 6 mps 698 mmHg 24%
    20:00 +23°C° 0 mm 7 mps 698 mmHg 27%
    21:00 +22°C° 0 mm 7 mps 698 mmHg 27%
    22:00 +22°C° 0 mm 6 mps 698 mmHg 28%
    23:00 +21°C° 0 mm 6 mps 699 mmHg 28%

    27 February, Thursday

    Time Temperature Precipitation Wind Pressure Humidity
    00:00 +20°C° 0 mm 5 mps 698 mmHg 29%
    01:00 +20°C° 0 mm 4 mps 698 mmHg 31%
    02:00 +19°C° 0 mm 3 mps 697 mmHg 32%
    03:00 +19°C° 0 mm 3 mps 697 mmHg 33%
    04:00 +19°C° 0 mm 3 mps 697 mmHg 34%
    05:00 +19°C° 0 mm 4 mps 697 mmHg 34%
    06:00 +21°C° 0 mm 4 mps 698 mmHg 32%
    07:00 +23°C° 0 mm 5 mps 698 mmHg 29%
    08:00 +26°C° 0 mm 6 mps 699 mmHg 26%
    09:00 +27°C° 0 mm 6 mps 699 mmHg 25%
    10:00 +29°C° 0 mm 6 mps 699 mmHg 23%
    11:00 +32°C° 0 mm 6 mps 699 mmHg 22%
    12:00 +32°C° 0 mm 6 mps 698 mmHg 21%
    13:00 +33°C° 0 mm 5 mps 698 mmHg 20%
    14:00 +34°C° 0 mm 5 mps 697 mmHg 19%
    15:00 +34°C° 0 mm 5 mps 696 mmHg 20%
    16:00 +34°C° 0 mm 5 mps 696 mmHg 20%
    17:00 +33°C° 0 mm 5 mps 695 mmHg 21%
    18:00 +30°C° 0 mm 4 mps 695 mmHg 26%
    19:00 +27°C° 0 mm 4 mps 695 mmHg 31%
    20:00 +24°C° 0 mm 3 mps 694 mmHg 36%
    21:00 +23°C° 0 mm 4 mps 695 mmHg 35%
    22:00 +23°C° 0 mm 4 mps 695 mmHg 35%
    23:00 +22°C° 0 mm 5 mps 695 mmHg 35%

    28 February, Friday

    Time Temperature Precipitation Wind Pressure Humidity
    00:00 +22°C° 0 mm 5 mps 695 mmHg 35%
    01:00 +22°C° 0 mm 6 mps 695 mmHg 35%
    02:00 +23°C° 0 mm 6 mps 695 mmHg 35%
    03:00 +22°C° 0 mm 6 mps 695 mmHg 36%
    04:00 +22°C° 0 mm 6 mps 695 mmHg 37%
    05:00 +22°C° 0 mm 6 mps 695 mmHg 38%
    06:00 +23°C° 0 mm 6 mps 696 mmHg 37%
    07:00 +26°C° 0 mm 7 mps 696 mmHg 35%
    08:00 +27°C° 0 mm 7 mps 697 mmHg 33%
    09:00 +29°C° 0 mm 6 mps 697 mmHg 30%
    10:00 +30°C° 0 mm 6 mps 698 mmHg 27%
    11:00 +33°C° 0 mm 5 mps 698 mmHg 24%
    12:00 +34°C° 0 mm 4 mps 698 mmHg 23%
    13:00 +35°C° 0 mm 4 mps 697 mmHg 21%
    14:00 +36°C° 0 mm 3 mps 697 mmHg 19%
    15:00 +35°C° 0 mm 3 mps 697 mmHg 19%
    16:00 +35°C° 0 mm 3 mps 696 mmHg 19%
    17:00 +35°C° 0 mm 3 mps 696 mmHg 19%
    18:00 +31°C° 0 mm 3 mps 696 mmHg 24%
    19:00 +29°C° 0 mm 4 mps 696 mmHg 29%
    20:00 +26°C° 0 mm 4 mps 696 mmHg 34%
    21:00 +25°C° 0 mm 4 mps 697 mmHg 34%
    22:00 +25°C° 0 mm 4 mps 698 mmHg 34%
    23:00 +23°C° 0 mm 5 mps 699 mmHg 35%

    29 February, Saturday

    Time Temperature Precipitation Wind Pressure Humidity
    00:00 +23°C° 0 mm 5 mps 699 mmHg 34%
    01:00 +23°C° 0 mm 5 mps 699 mmHg 34%
    02:00 +22°C° 0 mm 5 mps 699 mmHg 33%
    03:00 +22°C° 0 mm 5 mps 699 mmHg 34%
    04:00 +21°C° 0 mm 5 mps 700 mmHg 34%
    05:00 +20°C° 0 mm 5 mps 700 mmHg 34%
    06:00 +22°C° 0 mm 5 mps 701 mmHg 31%
    07:00 +25°C° 0 mm 5 mps 702 mmHg 29%
    08:00 +26°C° 0 mm 4 mps 703 mmHg 26%
    09:00 +28°C° 0 mm 5 mps 703 mmHg 24%
    10:00 +29°C° 0 mm 6 mps 703 mmHg 22%
    11:00 +32°C° 0 mm 6 mps 704 mmHg 21%
    12:00 +33°C° 0 mm 7 mps 704 mmHg 20%
    13:00 +33°C° 0 mm 7 mps 703 mmHg 19%
    14:00 +34°C° 0 mm 8 mps 703 mmHg 18%
    15:00 +33°C° 0 mm 8 mps 703 mmHg 18%
    16:00 +33°C° 0 mm 8 mps 702 mmHg 18%
    17:00 +32°C° 0 mm 9 mps 701 mmHg 19%
    18:00 +29°C° 0 mm 8 mps 701 mmHg 20%
    19:00 +27°C° 0 mm 8 mps 701 mmHg 21%
    20:00 +24°C° 0 mm 8 mps 701 mmHg 22%
    21:00 +23°C° 0 mm 8 mps 701 mmHg 23%
    22:00 +23°C° 0 mm 8 mps 702 mmHg 23%
    23:00 +22°C° 0 mm 8 mps 702 mmHg 24%
    Show more